This is the latest recevied weather packets stored in our database for station/object OE9FWV-10. If no packets are shown the sender has not sent any weather packets the latest 10 day(s).
| Time | Temp. | Humidity | Pressure | Rain* | Wind** | Luminosity | Snow |
|---|---|---|---|---|---|---|---|
| 1777030002 | 35.56° C | 13% | 1022.3 hPa | - | - | - | - |
| 1777029102 | 35° C | 14% | 1022.5 hPa | - | - | - | - |
| 1777028202 | 33.89° C | 14% | 1022.7 hPa | - | - | - | - |
| 1777027302 | 33.33° C | 15% | 1022.9 hPa | - | - | - | - |
| 1777026402 | 32.78° C | 16% | 1023 hPa | - | - | - | - |
| 1777025502 | 31.67° C | 17% | 1023.1 hPa | - | - | - | - |
| 1777024602 | 31.11° C | 18% | 1023.2 hPa | - | - | - | - |
| 1777023702 | 29.44° C | 20% | 1023.4 hPa | - | - | - | - |
| 1777022802 | 27.22° C | 22% | 1023.5 hPa | - | - | - | - |
| 1777021901 | 25° C | 23% | 1023.7 hPa | - | - | - | - |
| 1777021001 | 24.44° C | 24% | 1023.9 hPa | - | - | - | - |
| 1777020101 | 23.89° C | 24% | 1024.1 hPa | - | - | - | - |
| 1777019201 | 23.89° C | 24% | 1024.1 hPa | - | - | - | - |
| 1777018301 | 23.89° C | 25% | 1024.2 hPa | - | - | - | - |
| 1777017401 | 23.33° C | 26% | 1024.2 hPa | - | - | - | - |
| 1777016501 | 23.33° C | 26% | 1024.2 hPa | - | - | - | - |
| 1777015601 | 23.33° C | 27% | 1024.3 hPa | - | - | - | - |
| 1777014701 | 23.33° C | 27% | 1024.5 hPa | - | - | - | - |
| 1777013801 | 23.33° C | 27% | 1024.5 hPa | - | - | - | - |
| 1777012901 | 23.33° C | 27% | 1024.7 hPa | - | - | - | - |
| 1777012001 | 22.78° C | 28% | 1024.7 hPa | - | - | - | - |
| 1777011101 | 22.78° C | 28% | 1024.8 hPa | - | - | - | - |
| 1777010201 | 22.78° C | 28% | 1025 hPa | - | - | - | - |
| 1777009301 | 22.78° C | 28% | 1025.1 hPa | - | - | - | - |
| 1777008401 | 22.78° C | 27% | 1025.2 hPa | - | - | - | - |
* Rain since midnight (hover to see other rain measurements)
** Current wind speed in m/s (hover to see current wind gust speed)